Weather Service Report


864 
ASUS43 KLMK 230310
RWRKY 
KENTUCKY REGIONAL WEATHER ROUNDUP
NATIONAL WEATHER SERVICE LOUISVILLE KY
1000 PM EST SUN JAN 22 2017

NOTE "FAIR" INDICATES FEW OR NO CLOUDS BELOW 12,000 FEET
WITH NO SIGNIFICANT WEATHER AND/OR OBSTRUCTIONS TO VISIBILITY.

KYZ001>023-026-027-061>063-070>075-230400-
WESTERN AND SOUTH CENTRAL KENTUCKY
  
CITY           SKY/WX    TMP DP  RH WIND       PRES   REMARKS
PADUCAH        PTCLDY    55  49  80 N20G26    29.46R                  
HENDERSON      PTCLDY    57  48  72 NW10G20   29.44R                  
OWENSBORO      CLOUDY    58  49  72 N10G21    29.41R                  
HOPKINSVILLE   CLOUDY    57  52  84 N12G20    29.35S                  
BOWLING GREEN  CLOUDY    58  52  80 N10       29.32S                  
GLASGOW        CLOUDY    56  51  85 NE12G17   29.31R                  
$$

KYZ024-025-028>034-038-045-046-053-230400-
NORTH CENTRAL KENTUCKY
  
CITY           SKY/WX    TMP DP  RH WIND       PRES   REMARKS
LOUISVILLE/SDF CLOUDY    60  47  61 N16       29.38R                  
LOUISVILLE/LOU CLOUDY    60  48  64 N10G18    29.39R                  
FORT KNOX      CLOUDY    57  50  76 N12       29.36R                  
$$

KYZ035>037-039>044-047>052-055>060-089>105-230400-
NORTHEAST KENTUCKY
  
CITY           SKY/WX    TMP DP  RH WIND       PRES   REMARKS
LEXINGTON      CLOUDY    55  50  83 NE18      29.35F                  
COVINGTON      CLOUDY    57  49  74 NE13      29.43S                  
FRANKFORT      CLOUDY    56  50  80 N10       29.36S                  
$$

KYZ054-064>069-076>088-106>120-230400-
SOUTHEAST KENTUCKY
  
CITY           SKY/WX    TMP DP  RH WIND       PRES   REMARKS
JACKSON        CLOUDY    54  51  90 VRB7      29.31F                  
LONDON         CLOUDY    55  50  83 NE9       29.29R                  
SOMERSET       DRIZZLE   54  54 100 E12       29.30R                  
MIDDLESBORO    LGT RAIN  56  54  91 CALM      29.28R                  
MONTICELLO     RAIN      54  52  93 N21       29.29S                  
$$

  

Return to Home page


Western Regional Climate Center, wrcc@dri.edu